COSMOS 2466 [GLONASS-M] 
1 37137U 10041A   19260.26055743  .00000037  00000-0  00000+0 0  9996
2 37137  64.2606 275.2983 0017250 165.4485 262.3388  2.13112203 70375
COSMOS 2465 [GLONASS-M] 
1 37138U 10041B   19259.50801626  .00000034  00000-0  00000+0 0  9998
2 37138  64.2780 275.4270 0036998 173.6621 162.8880  2.13097823 70341
COSMOS 2464 [GLONASS-M] 
1 37139U 10041C   19260.12725215  .00000037  00000-0  00000+0 0  9991
2 37139  64.2838 275.4119 0023582   6.3377 280.7031  2.13100724 70357
SL-12 R/B(2)            
1 37140U 10041D   19258.29031662  .00000031  00000-0  00000-0 0  9999
2 37140  64.2744 275.0213 0033002 190.6610 253.9535  2.13454264 70397
SL-12 R/B(AUX MOTOR)    
1 37143U 10041G   19260.33208997  .00000116  00000-0  30591-3 0  9992
2 37143  64.8741 281.6519 5753808  48.2850 348.4198  4.16156662139552
SL-12 R/B(AUX MOTOR)    
1 37144U 10041H   19234.36664913 -.00008481  00000-0 -25832-1 0  9996
2 37144  64.9768 291.4625 5708146  38.4104 351.6704  4.24887842139041
SL-12 DEB               
1 42974U 10041P   19260.31082008  .00000053  00000-0  74312-4 0  9991
2 42974  64.9005 274.6304 5633256  47.5196 348.1113  4.28533296 31850
SL-12 DEB               
1 42978U 10041T   19259.09993141  .00000212  00000-0  61129-3 0  9995
2 42978  65.3684 259.4760 5516451  34.0584 351.4660  4.50673476 33405
SL-12 DEB               
1 42979U 10041U   19260.17342719  .00000099  00000-0  24219-3 0  9998
2 42979  64.8760 274.3510 5679012  47.5431 348.3033  4.25552062 31526
SL-12 DEB               
1 42980U 10041V   19259.51101358  .00000112  00000-0  11034-2 0  9994
2 42980  64.9825 285.3983 5608794  45.6581 348.5620  4.18977032 31064
SL-12 DEB               
1 42981U 10041W   19260.17195080  .00000052  00000-0  57396-4 0  9990
2 42981  65.4682 262.5846 5525699  31.1772  11.2625  4.48817258 32944